DW0805 Weather Reports


time (UTC)temp
C
wind
direction
speed
KPH
gust
KPH
rain 1hr
cm
rain 24hr
cm
rain mn
cm
humidity
%
barometer
mb
20260509083513 15 49 12.9 24.1 0.00 0.00 0.00 28 1023.3
20260509082512 15 56 12.9 19.3 0.00 0.00 0.00 28 1023.4
20260509071513 13 58 9.7 16.1 0.00 0.00 0.00 38 1023.8
20260509065513 13 66 6.4 12.9 0.00 0.00 0.00 43 1023.9
20260509064514 12 47 8.0 12.9 0.00 0.00 0.00 47 1023.9
20260509063512 12 56 8.0 12.9 0.00 0.00 0.00 49 1023.9
20260509062513 11 75 11.3 16.1 0.00 0.00 0.00 48 1023.9
20260509061513 11 66 6.4 12.9 0.00 0.00 0.00 53 1023.9
20260509060512 11 66 4.8 9.7 0.00 0.00 0.00 60 1023.9
20260509054513 10 53 8.0 14.5 0.00 0.00 0.00 67 1024.0
20260509053514 10 50 6.4 12.9 0.00 0.00 0.00 69 1024.0
20260509044513 4 34 1.6 4.8 0.00 0.00 0.00 88 1024.0
20260509043513 2 24 0.0 3.2 0.00 0.00 0.00 89 1024.0
20260509041513 0 22 0.0 3.2 0.00 0.00 0.00 90 1023.9
20260509031513 0 15 0.0 1.6 0.00 0.00 0.00 88 1024.1
20260509030513 0 15 0.0 1.6 0.00 0.00 0.00 87 1024.0
20260509022513 2 29 0.0 4.8 0.00 0.00 0.00 84 1024.1
20260509014514 1 34 4.8 8.0 0.00 0.00 0.00 85 1024.4
20260509013513 1 88 3.2 4.8 0.00 0.00 0.00 84 1024.4
20260509010513 2 88 1.6 3.2 0.00 0.00 0.00 82 1024.4
20260509002513 2 91 3.2 4.8 0.00 0.00 0.00 78 1024.6
20260509000513 3 105 3.2 4.8 0.00 0.00 0.00 74 1024.7
20260508232513 6 105 4.8 8.0 0.00 0.00 0.00 63 1024.9
20260508231513 6 113 4.8 8.0 0.00 0.00 0.00 62 1024.9
20260508224514 5 96 4.8 8.0 0.00 0.00 0.00 72 1024.8
20260508222513 5 74 3.2 9.7 0.00 0.00 0.00 74 1024.7
20260508215513 5 49 4.8 9.7 0.00 0.00 0.00 79 1024.6
20260508212513 6 41 4.8 9.7 0.00 0.00 0.00 77 1024.5
20260508211514 6 140 3.2 4.8 0.00 0.00 0.00 76 1024.4
20260508210514 6 145 0.0 3.2 0.00 0.00 0.00 74 1024.3
20260508204513 7 146 1.6 3.2 0.00 0.00 0.00 70 1024.2
20260508195514 10 195 0.0 8.0 0.00 0.00 0.00 60 1023.8
20260508193514 11 164 3.2 9.7 0.00 0.00 0.00 57 1023.6
20260508191513 11 160 1.6 9.7 0.00 0.00 0.00 60 1023.5
20260508190514 11 171 4.8 11.3 0.00 0.00 0.00 60 1023.4
20260508185513 11 183 1.6 9.7 0.00 0.00 0.00 58 1023.4
20260508184513 12 167 4.8 9.7 0.00 0.00 0.00 57 1023.2
20260508182513 12 180 6.4 12.9 0.00 0.00 0.00 54 1023.0
20260508175514 14 187 4.8 11.3 0.00 0.00 0.00 48 1022.8
20260508173513 14 213 11.3 19.3 0.00 0.00 0.00 43 1022.6
20260508172513 14 114 12.9 20.9 0.00 0.00 0.00 41 1022.7
20260508171514 14 120 9.7 24.1 0.00 0.00 0.00 37 1022.5
20260508170513 14 125 14.5 25.7 0.00 0.00 0.00 38 1022.5
20260508165514 15 133 11.3 22.5 0.00 0.00 0.00 40 1022.5
20260508164515 15 115 12.9 24.1 0.00 0.00 0.00 34 1022.5
20260508162514 15 129 9.7 22.5 0.00 0.00 0.00 32 1022.5
20260508161514 15 172 11.3 22.5 0.00 0.00 0.00 35 1022.4
20260508160514 15 141 11.3 25.7 0.00 0.00 0.00 32 1022.4
20260508154514 15 114 17.7 22.5 0.00 0.00 0.00 31 1022.4
20260508152514 16 85 14.5 27.4 0.00 0.00 0.00 27 1022.4
20260508151514 15 87 19.3 27.4 0.00 0.00 0.00 27 1022.6
20260508145513 16 132 12.9 25.7 0.00 0.00 0.00 28 1022.6
20260508141516 16 124 11.3 27.4 0.00 0.00 0.00 30 1022.7
20260508135514 16 125 12.9 24.1 0.00 0.00 0.00 34 1022.9
20260508133514 16 99 11.3 25.7 0.00 0.00 0.00 34 1022.9
20260508132514 16 97 12.9 25.7 0.00 0.00 0.00 34 1022.9
20260508130513 17 128 9.7 22.5 0.00 0.00 0.00 39 1023.0
20260508122513 17 131 6.4 16.1 0.00 0.00 0.00 39 1023.0
20260508121514 16 141 11.3 20.9 0.00 0.00 0.00 36 1023.1
20260508113515 16 173 9.7 19.3 0.00 0.00 0.00 37 1023.1
20260508111513 16 148 9.7 20.9 0.00 0.00 0.00 38 1023.2
20260508103513 16 144 11.3 19.3 0.00 0.00 0.00 43 1023.1
20260508100513 17 140 8.0 14.5 0.00 0.00 0.00 50 1023.1
20260508095513 16 153 8.0 16.1 0.00 0.00 0.00 52 1023.1
20260508094514 16 172 6.4 16.1 0.00 0.00 0.00 53 1023.1
20260508093513 16 151 4.8 16.1 0.00 0.00 0.00 52 1023.1
20260508090513 16 176 6.4 14.5 0.00 0.00 0.00 56 1023.1
20260508085513 16 158 8.0 14.5 0.00 0.00 0.00 53 1023.1